Location: Newark
(53.3469°N, 7.1606°E)
Time: 06:29:10
(UTC+00:00)

N. Korean satellite - Pass Details

Date: 13 November 2019
Orbit: 456 x 506 km, 97.2° (Epoch: 05 December)

Event Time Altitude Azimuth Distance (km) Brightness Sun altitude
Rises 16:11:37 0° 159° (SSE) 2,546 10.3 -5.2°
Reaches altitude 10° 16:13:39 10° 158° (SSE) 1,678 9.3 -5.5°
Maximum altitude 16:17:15 72° 75° (ENE) 528 6.6 -6.0°
Drops below altitude 10° 16:20:57 10° 350° (N) 1,718 9.2 -6.5°
Sets 16:23:03 0° 348° (NNW) 2,614 10.2 -6.8°
